Cloud_Cover
100 100 100 100 100 100 100 100 100 100 100 100 100 100 100 100 100 100 100 100 100 100
100 100 100 100 100 100 100 100 100 100 100 100 100 100 100 100 100 100 100 100 100 100
100 100 100 100 100 100 100 100 100 100 100 100 100 100 100 100 98 100 100 100 100 100
100 100 100 100 100 100 100 100 100 100 100 100 100 100 100 100 100 100 100 100 100 100
100 100 100 100 100 100 100 100 100 100 99 63 100 83 100 100 100 100 96 53 35 67
94 99 100 100 100 93 99 87 73 74 77 99 75 100 100 100 100 100 100 91 100 100
5 10 99 100 100 100 100 100 100 100 100 99 100 100 100 100 100 100 100 100 100 100
100 100 100 100 100 100 100 100 100 100 100 100 100 100 100 100 100 100 100 100 100 100
100 100 100 100 100 100 100 100 100 100 100 100 100 100 100 100 100 88 80 22 59 78
100 100 100 100 100 100 100 100 100 100 100 100 97 100 100 100 68 5 5 5 5 5
100 100 100 100 100 100 100 100 100 100 98 100 100 100 96 77 5 5 5 79 98 100
100 100 100 100 100 100 100 100 100 100 100 100 100 100 100 75 4 5 65 100 99 93
100 100 100 100 100 100 100 100 100 100 100 100 100 100 57 5 0 4 5 5 12 45
100 100 100 100 100 100 100 100 100 100 100 100 100 53 5 5 1 2 5 5 6 36